Volver al catálogo

ATLAS 5 CENTAUR DEB

ActivoHEO
NORAD 43976·DEBRIS·🇺🇸 United States

Lanzado Sep 17, 2014 desde Cape Canaveral Space Force Station

Loading…

Próximos Pases (próximas 24 horas)

TLE

ActualizadoSource: Space-Track

Época: Sep 7, 2026, 15:35 UTC

1 43976U 14055AF  26250.64982708 -.00000099  00000-0  00000-0 0  9992
2 43976  20.0261 141.4914 4738340 165.1543 215.8571  1.83493364 53716

Sigue ATLAS 5 CENTAUR DEB en tiempo real con AllMySat

Download on the App Store